Terug naar catalogus

SL-8 DEB *

ActiefLEO
NORAD 14806·DEBRIS·🇷🇺 Russia

Gelanceerd Aug 28, 1979 vanaf Plesetsk Cosmodrome

Loading…

Volgende Passages (komende 24 uur)

TLE

VersSource: Space-Track

Epoch: Sep 14, 2026, 10:26 UTC

1 14806U 79078D   26257.43484112  .00001147  00000-0  23579-3 0  9991
2 14806  74.0283 270.5617 0002171  71.9827 357.1171 14.61803147552943

Volg SL-8 DEB * in realtime met AllMySat

Download on the App Store